N7WLC Weather Reports


Display with metric or nautical units.
time (UTC)temp
F
wind
direction
speed
MPH
gust
MPH
rain 1hr
in
rain 24hr
in
rain mn
in
humidity
%
barometer
mb
20260507013048 65 244 0.0 0.0 0.00 0.00 0.00 61 1016.0
20260507010047 66 249 0.0 0.0 0.00 0.00 0.00 57 1016.1
20260507003047 68 246 0.0 0.0 0.00 0.00 0.00 56 1015.8
20260507000048 69 235 0.0 0.0 0.00 0.00 0.00 56 1015.8
20260506233048 70 279 2.0 2.0 0.00 0.00 0.00 53 1016.0
20260506230047 70 272 2.0 3.0 0.00 0.00 0.00 54 1016.1
20260506223047 70 256 1.0 1.0 0.00 0.00 0.00 53 1016.4
20260506220047 73 243 1.0 2.0 0.00 0.00 0.00 49 1016.8
20260506213047 75 262 1.0 1.0 0.00 0.00 0.00 42 1017.0
20260506210047 73 296 4.0 4.0 0.00 0.00 0.00 50 1017.1
20260506202118 74 251 2.0 3.0 0.00 0.00 0.00 50 1017.3
20260506195118 74 256 0.0 0.0 0.00 0.00 0.00 50 1017.5
20260506192120 74 240 0.0 0.0 0.00 0.00 0.00 47 1017.7
20260506185118 73 334 4.0 6.0 0.00 0.00 0.00 43 1017.8
20260506182118 71 217 1.0 1.0 0.00 0.00 0.00 48 1018.0
20260506175119 71 194 2.0 2.0 0.00 0.00 0.00 46 1017.9
20260506172118 70 223 0.0 0.0 0.00 0.00 0.00 48 1018.2
20260506165118 68 176 1.0 1.0 0.00 0.00 0.00 50 1018.2
20260506162118 67 216 1.0 1.0 0.00 0.00 0.00 51 1018.1
20260506155118 66 222 0.0 0.0 0.00 0.00 0.00 55 1018.2
20260506152117 62 218 0.0 0.0 0.00 0.00 0.00 62 1018.1
20260506145117 60 200 2.0 2.0 0.00 0.00 0.00 69 1018.2
20260506142117 57 250 1.0 1.0 0.00 0.00 0.00 75 1018.0
20260506135117 50 250 0.0 0.0 0.00 0.00 0.00 89 1017.7
20260506132117 49 251 0.0 0.0 0.00 0.00 0.00 92 1017.8
20260506125118 48 251 0.0 0.0 0.00 0.00 0.00 93 1017.5
20260506122117 49 251 0.0 0.0 0.00 0.00 0.00 92 1017.1
20260506115117 49 251 0.0 0.0 0.00 0.00 0.00 92 1016.9
20260506112118 49 251 0.0 0.0 0.00 0.00 0.00 91 1017.0
20260506105117 49 251 0.0 0.0 0.00 0.00 0.00 91 1017.0
20260506102117 50 251 0.0 0.0 0.00 0.00 0.00 91 1016.9
20260506095118 50 251 0.0 0.0 0.00 0.00 0.00 91 1017.2
20260506092117 50 250 0.0 0.0 0.00 0.00 0.00 90 1017.2
20260506085118 50 250 0.0 0.0 0.00 0.00 0.00 90 1017.2
20260506082117 50 250 0.0 0.0 0.00 0.00 0.00 92 1017.5
20260506072117 51 250 0.0 0.0 0.00 0.00 0.00 91 1017.5
20260506062118 52 250 0.0 0.0 0.00 0.00 0.00 89 1016.7
20260506045117 54 240 0.0 0.0 0.00 0.00 0.00 85 1016.1
20260506042118 54 240 0.0 0.0 0.00 0.00 0.00 83 1015.9
20260506035117 55 248 0.0 0.0 0.00 0.00 0.00 81 1015.5
20260506032117 56 248 0.0 0.0 0.00 0.00 0.00 76 1015.1
20260506025118 58 248 0.0 0.0 0.00 0.00 0.00 71 1014.6
20260506022117 59 235 0.0 0.0 0.00 0.00 0.00 69 1014.3
20260506015117 60 239 0.0 0.0 0.00 0.00 0.00 68 1014.3